Home > Time Zones > World Clock > Weather > U.S.A. > Waco > Past weeks

Flag for U.S.A. Weather past 2 weeks in Waco, Texas, U.S.A.

Now
28 °F

Overcast.


Feels Like: 19 °F
Forecast: 30 / 38 °F
Wind: 9 mph from Northeast

Location: Waco Regional Airport

Current Time: Feb 28, 2015 at 1:03:01 AM

Latest Report: Feb 27, 2015 at 11:51 PM


Visibility: 10 mi

Pressure: 30.40 "Hg

Humidity: 89%

Dew point: 25 °F

Location of WacoLocation

Historic Weather in Waco — Graph

°F

Waco temperature yesterday

Maximum temperature yesterday: 33 °F (at 12:51 AM)
Minimum temperature yesterday: 28 °F (at 11:51 PM)
Average temperature yesterday: 29 °F

Past Weeks' High & Low Weather Summary

 TemperatureHumidityPressure
High78 °F (Feb 14, 2:51 PM)100% (Feb 25, 9:03 AM)30.55 "Hg (Feb 25, 9:03 AM)
Low27 °F (Feb 18, 6:51 AM)25% (Feb 14, 2:51 PM)29.71 "Hg (Feb 20, 4:51 PM)
Average44 °F76%30.16 "Hg
* Reported Feb 12 11:51 PM — Feb 27 11:51 PM, Waco, Weather by CustomWeather, © 2015

Note: Actual official high and low records may vary slightly from our data, if they occured in-between our weather recording intervals... More about our weather records

Advertising

Waco weather history for previous 24 hours

 ConditionsComfort  
Time TempWeatherWind HumidityBarometerVisibility
11:51 PM
Fri, Feb 27
28 °FOvercast.9 mph89%30.40 "Hg10 mi
10:51 PM29 °FLight snow. Overcast.10 mph85%30.42 "Hg8 mi
9:51 PM29 °FLight snow. Overcast.10 mph85%30.44 "Hg10 mi
8:51 PM29 °FLight freezing rain. Overcast.9 mph85%30.43 "Hg10 mi
7:51 PM29 °FLight freezing rain. Ice fog.10 mph93%30.41 "Hg6 mi
6:51 PM29 °FLight freezing rain. Ice fog.14 mph93%30.41 "Hg2 mi
5:51 PM29 °FLight freezing rain. Ice fog.13 mph93%30.40 "Hg2 mi
4:51 PM29 °FLight freezing rain. Ice fog.13 mph89%30.39 "Hg3 mi
3:51 PM30 °FOvercast.13 mph79%30.39 "Hg10 mi
2:51 PM30 °FOvercast.9 mph79%30.39 "Hg10 mi
1:51 PM30 °FOvercast.10 mph79%30.41 "Hg10 mi
12:51 PM30 °FCloudy.12 mph75%30.44 "Hg10 mi
11:51 AM29 °FOvercast.10 mph75%30.47 "Hg10 mi
10:51 AM29 °FOvercast.13 mph75%30.47 "Hg10 mi
9:51 AM29 °FOvercast.12 mph72%30.47 "Hg10 mi
8:51 AM29 °FOvercast.12 mph66%30.47 "Hg10 mi
7:51 AM29 °FOvercast.9 mph64%30.46 "Hg10 mi
6:51 AM29 °FOvercast.10 mph61%30.42 "Hg10 mi
5:51 AM29 °FMostly cloudy.14 mph64%30.40 "Hg10 mi
4:51 AM29 °FMostly cloudy.15 mph61%30.38 "Hg10 mi
3:51 AM30 °FOvercast.15 mph59%30.38 "Hg10 mi
2:51 AM31 °FOvercast.13 mph59%30.40 "Hg10 mi
1:51 AM32 °FOvercast.15 mph59%30.42 "Hg10 mi
Weather by CustomWeather, © 2015

See weather overviewHow to use our weather pages